User: anonymous   Login
Location: Newark
(12.4436°N, 0.6167°W)
Time: 20:33:25
(UTC+00:00)
Language:

A-11 Canister half - Orbit

View from above orbital plane
View from above orbital plane
View from above satellite
View from above satellite

Ground track
Ground track

The orbit data is extracted from the following two-line orbital elements,

1    53U 60009E   19348.80132043 -.00000053  00000-0  30206-3 0  9992
2    53  47.2762 111.5018 0098239 251.5598 107.4490 12.17234557645952
Epoch (UTC): 14 December 2019 19:13:54
Eccentricity: 0.0098239
inclination: 47.2762°
perigee height: 1526 km
apogee height: 1683 km
right ascension of ascending node: 111.5018°
argument of perigee: 251.5598°
revolutions per day: 12.17234557
mean anomaly at epoch: 107.4490°
orbit number at epoch: 64595

The dashed part of the orbit path shows where the satellite is in the earth's shadow,  

DLR